period_start,C,m1,H,J0,J1,J2,J3,J4,J5,JA,JB,JC,JD,JJ,JK,JN,#
2015-06-24 00:03:33,0.01,0.30,0.00,24.54,28.20,30.70,4.78,25.86,1013.05,2034.07,3345.99,3220.99,3507.98,350.08,344.62,13.41,0000 0000 0000 0000 000000
2015-06-24 00:08:34,-0.00,0.30,0.00,24.53,28.20,30.76,4.74,25.94,1013.02,2034.06,3345.99,3220.99,3507.98,350.26,345.04,13.44,0000 0000 0000 0000 000000
2015-06-24 00:13:35,0.01,0.30,0.00,24.52,28.20,30.72,4.80,25.93,1012.87,2034.11,3345.99,3220.99,3507.98,350.05,344.69,13.47,0000 0000 0000 0000 000000
2015-06-24 00:18:36,-0.00,0.30,0.00,24.52,28.20,30.71,4.80,25.94,1013.08,2034.11,3346.00,3220.99,3507.99,350.18,344.78,13.50,0000 0000 0000 0000 000000
2015-06-24 00:23:37,-0.01,0.30,0.00,24.52,28.19,30.72,4.70,25.91,1013.14,2034.12,3346.00,3220.99,3507.99,349.47,344.16,13.53,0000 0000 0000 0000 000000
2015-06-24 00:28:39,0.00,0.30,0.00,24.54,28.18,30.72,4.76,26.02,1013.18,2034.14,3346.00,3220.99,3507.99,350.34,344.92,13.56,0000 0000 0000 0000 000000
2015-06-24 00:33:40,0.00,0.30,0.00,24.54,28.17,30.70,4.79,25.96,1013.18,2034.13,3346.00,3220.99,3507.98,350.51,345.21,13.59,0000 0000 0000 0000 000000
2015-06-24 00:38:41,0.01,0.30,0.00,24.55,28.17,30.69,4.84,26.03,1013.19,2034.19,3345.99,3221.00,3507.99,350.99,345.57,13.62,0000 0000 0000 0000 000000
2015-06-24 00:43:43,0.03,0.30,0.00,24.55,28.17,30.68,4.72,25.88,1013.20,2034.27,3345.99,3221.00,3507.99,350.30,344.83,13.65,0000 0000 0000 0000 000000
2015-06-24 00:48:44,-0.02,0.30,0.00,24.55,28.17,30.67,4.77,25.89,1013.20,2034.18,3346.00,3221.00,3507.99,350.18,344.97,13.68,0000 0000 0000 0000 000000
2015-06-24 00:53:45,0.00,0.30,0.00,24.57,28.17,30.65,4.78,26.02,1013.20,2034.20,3346.00,3221.00,3507.99,350.37,344.93,13.71,0000 0000 0000 0000 000000
2015-06-24 00:58:46,-0.01,0.30,0.00,24.57,28.17,30.63,4.72,25.93,1013.21,2034.16,3346.01,3221.00,3507.99,349.67,344.62,13.74,0000 0000 0000 0000 000000
2015-06-24 01:03:47,-0.01,0.30,0.00,24.56,28.17,30.64,4.78,25.92,1013.21,2034.12,3346.01,3221.00,3507.99,349.76,344.48,13.76,0000 0000 0000 0000 000000
2015-06-24 01:08:48,0.03,0.30,0.00,24.57,28.17,30.64,4.74,25.89,1013.21,2034.24,3346.00,3221.00,3507.99,350.45,345.13,13.79,0000 0000 0000 0000 000000
2015-06-24 01:13:49,0.02,0.30,0.00,24.57,28.17,30.62,4.74,25.88,1013.22,2034.32,3346.00,3221.01,3507.99,349.72,344.54,13.82,0000 0000 0000 0000 000000
2015-06-24 01:18:51,-0.03,0.30,0.00,24.58,28.17,30.62,4.72,25.89,1013.21,2034.21,3346.01,3221.00,3507.99,350.07,344.86,13.85,0000 0000 0000 0000 000000
2015-06-24 01:23:52,-0.01,0.30,0.00,24.59,28.17,30.62,4.79,25.90,1013.34,2034.09,3346.00,3221.00,3507.99,349.57,344.13,13.88,0000 0000 0000 0000 000000
2015-06-24 01:28:53,0.02,0.30,0.00,24.60,28.17,30.62,4.74,25.90,1013.35,2034.19,3346.00,3221.00,3507.99,350.16,345.15,13.91,0000 0000 0000 0000 000000
2015-06-24 01:33:54,0.01,0.30,0.00,24.60,28.17,30.61,4.73,25.88,1013.43,2034.25,3346.00,3221.00,3507.99,349.93,344.64,13.94,0000 0000 0000 0000 000000
2015-06-24 01:38:56,0.00,0.30,0.00,24.59,28.17,30.62,4.73,25.88,1013.35,2034.32,3345.99,3221.00,3507.98,349.50,344.28,13.97,0000 0000 0000 0000 000000
2015-06-24 01:43:57,0.00,0.30,0.00,24.61,28.17,30.62,4.67,25.93,1013.42,2034.20,3345.98,3221.00,3507.97,349.80,344.55,14.00,0000 0000 0000 0000 000000
2015-06-24 01:48:58,0.00,0.30,0.00,24.61,28.17,30.62,4.75,25.94,1013.65,2034.23,3345.90,3220.99,3507.98,350.76,345.26,14.03,0000 0000 0000 0000 000000
2015-06-24 01:53:59,-0.02,0.30,0.00,24.62,28.17,30.61,4.73,25.87,1013.67,2034.14,3345.97,3220.99,3507.93,350.21,345.11,14.06,0000 0000 0000 0000 000000
2015-06-24 01:59:00,0.01,0.30,0.00,24.62,28.17,30.60,4.68,25.93,1013.64,2034.16,3345.98,3220.99,3507.96,349.57,344.41,14.09,0000 0000 0000 0000 000000
2015-06-24 02:04:01,-0.00,0.30,0.00,24.63,28.17,30.61,4.73,26.00,1013.50,2034.23,3345.96,3220.99,3507.98,349.63,344.34,14.12,0000 0000 0000 0000 000000
2015-06-24 02:09:03,0.01,0.30,0.00,24.63,28.17,30.60,4.74,26.04,1013.49,2034.31,3345.97,3220.99,3507.98,349.85,344.61,14.15,0000 0000 0000 0000 000000
2015-06-24 02:14:04,-0.00,0.30,0.00,24.64,28.17,30.58,4.80,26.03,1013.62,2034.22,3345.92,3220.99,3507.95,349.95,344.95,14.17,0000 0000 0000 0000 000000
2015-06-24 02:19:05,0.00,0.30,0.00,24.64,28.17,30.57,4.70,26.10,1013.65,2034.25,3345.94,3220.99,3507.94,349.73,344.53,14.20,0000 0000 0000 0000 000000
2015-06-24 02:24:06,-0.01,0.30,0.00,24.65,28.18,30.59,4.79,26.09,1013.49,2034.18,3345.94,3220.98,3507.88,349.93,344.63,14.23,0000 0000 0000 0000 000000
2015-06-24 02:29:08,0.01,0.30,0.00,24.66,28.18,30.59,4.76,26.01,1013.56,2034.16,3345.79,3220.98,3507.88,350.00,344.57,14.26,0000 0000 0000 0000 000000
2015-06-24 02:34:09,-0.01,0.30,0.00,24.67,28.19,30.57,4.74,26.12,1013.63,2034.22,3345.92,3220.98,3507.88,349.46,344.13,14.29,0000 0000 0000 0000 000000
2015-06-24 02:39:11,0.02,0.30,0.00,24.67,28.20,30.60,4.70,26.06,1013.68,2034.10,3345.59,3220.96,3507.57,349.83,344.81,14.32,0000 0000 0000 0000 000000
2015-06-24 02:44:12,-0.01,0.30,0.00,24.68,28.20,30.59,4.67,25.97,1013.67,2034.17,3345.70,3220.97,3507.69,349.32,344.05,14.35,0000 0000 0000 0000 000000
2015-06-24 02:49:13,-0.00,0.30,0.00,24.69,28.20,30.59,4.72,25.94,1013.68,2034.15,3345.82,3220.97,3507.77,350.14,344.81,14.38,0000 0000 0000 0000 000000
2015-06-24 02:54:14,-0.00,0.30,0.00,24.69,28.20,30.60,4.71,26.04,1013.69,2034.13,3345.93,3220.98,3507.88,349.84,344.54,14.41,0000 0000 0000 0000 000000
2015-06-24 02:59:16,-0.00,0.30,0.00,24.70,28.20,30.59,4.75,25.92,1013.69,2034.14,3345.97,3220.99,3507.90,350.44,345.03,14.44,0000 0000 0000 0000 000000
2015-06-24 03:04:17,-0.00,0.30,0.00,24.70,28.20,30.60,4.68,25.93,1013.69,2034.10,3345.91,3220.97,3507.74,349.86,344.52,14.47,0000 0000 0000 0000 000000
2015-06-24 03:09:19,0.00,0.30,0.00,24.70,28.21,30.59,4.64,26.02,1013.69,2034.10,3345.91,3220.98,3507.65,349.92,344.59,14.50,0000 0000 0000 0000 000000
2015-06-24 03:14:20,-0.00,0.30,0.00,24.71,28.22,30.60,4.73,25.89,1013.69,2034.03,3345.94,3220.96,3507.46,349.64,344.54,14.53,0000 0000 0000 0000 000000
2015-06-24 03:19:21,0.00,0.30,0.00,24.72,28.22,30.62,4.74,26.03,1013.69,2034.04,3345.92,3220.97,3507.36,349.88,344.50,14.56,0000 0000 0000 0000 000000
2015-06-24 03:24:23,0.02,0.30,0.00,24.72,28.22,30.60,4.66,25.99,1013.69,2034.05,3345.62,3220.95,3507.16,350.53,345.24,14.58,0000 0000 0000 0000 000000
2015-06-24 03:29:24,0.02,0.30,0.00,24.73,28.22,30.62,4.76,25.95,1013.69,2034.04,3345.37,3220.76,3507.06,350.13,344.81,14.61,0000 0000 0000 0000 000000
2015-06-24 03:34:25,-0.01,0.30,0.00,24.72,28.22,30.63,4.75,26.01,1013.69,2034.02,3345.19,3220.58,3507.05,349.96,344.66,14.64,0000 0000 0000 0000 000000
2015-06-24 03:39:26,0.03,0.30,0.00,24.73,28.23,30.63,4.68,26.07,1013.69,2034.01,3345.04,3220.17,3507.01,350.14,344.75,14.67,0000 0000 0000 0000 000000
2015-06-24 03:44:27,0.00,0.30,0.00,24.75,28.24,30.62,4.77,25.93,1013.69,2034.02,3345.01,3220.09,3507.00,350.65,345.29,14.70,0000 0000 0000 0000 000000
2015-06-24 03:49:29,-0.00,0.30,0.00,24.76,28.25,30.62,4.74,25.99,1013.69,2034.01,3345.00,3220.04,3507.00,350.12,344.60,14.73,0000 0000 0000 0000 000000
2015-06-24 03:54:30,-0.00,0.30,0.00,24.78,28.25,30.63,4.71,26.02,1013.69,2034.01,3345.00,3220.03,3507.00,350.25,344.82,14.76,0000 0000 0000 0000 000000
2015-06-24 03:59:31,0.00,0.30,0.00,24.78,28.25,30.62,4.68,25.99,1013.69,2034.01,3345.00,3220.02,3507.00,349.87,344.65,14.79,0000 0000 0000 0000 000000
2015-06-24 04:04:32,0.00,0.30,0.00,24.77,28.25,30.62,4.73,25.94,1013.69,2034.02,3344.99,3220.02,3507.00,350.02,344.58,14.82,0000 0000 0000 0000 000000
2015-06-24 04:09:33,-0.00,0.30,0.00,24.77,28.27,30.64,4.74,25.80,1013.69,2034.01,3344.99,3220.01,3507.00,350.16,344.96,14.85,0000 0000 0000 0000 000000
2015-06-24 04:14:34,0.00,0.30,0.00,24.77,28.27,30.66,4.77,25.96,1013.69,2034.02,3344.99,3220.01,3507.00,349.98,344.69,14.88,0000 0000 0000 0000 000000
2015-06-24 04:19:36,-0.00,0.30,0.00,24.79,28.27,30.66,4.73,25.95,1013.69,2034.01,3344.99,3220.00,3506.99,350.02,344.72,14.91,0000 0000 0000 0000 000000
2015-06-24 04:24:37,0.00,0.30,0.00,24.81,28.27,30.66,4.68,25.85,1013.70,2034.00,3344.99,3220.00,3506.95,350.25,344.85,14.94,0000 0000 0000 0000 000000
2015-06-24 04:29:38,0.01,0.30,0.00,24.80,28.28,30.66,4.69,25.88,1013.70,2034.00,3344.97,3219.99,3506.80,349.91,344.45,14.97,0000 0000 0000 0000 000000
2015-06-24 04:34:39,-0.00,0.30,0.00,24.80,28.29,30.67,4.73,25.97,1013.71,2034.00,3344.96,3219.99,3506.76,350.19,344.91,14.99,0000 0000 0000 0000 000000
2015-06-24 04:39:40,0.02,0.30,0.00,24.81,28.30,30.69,4.71,26.04,1013.74,2034.00,3344.82,3219.99,3506.48,349.41,344.02,15.02,0000 0000 0000 0000 000000
2015-06-24 04:44:42,-0.02,0.30,0.00,24.82,28.30,30.67,4.74,25.93,1013.89,2034.00,3344.94,3219.99,3506.72,350.21,344.84,15.05,0000 0000 0000 0000 000000
2015-06-24 04:49:43,0.00,0.30,0.00,24.82,28.30,30.69,4.70,25.88,1013.84,2034.00,3344.92,3219.99,3506.72,349.62,344.40,15.08,0000 0000 0000 0000 000000
2015-06-24 04:54:44,0.02,0.30,0.00,24.83,28.31,30.68,4.71,25.90,1014.02,2033.99,3344.67,3219.97,3506.33,349.65,344.46,15.11,0000 0000 0000 0000 000000
2015-06-24 04:59:45,0.01,0.30,0.00,24.83,28.32,30.71,4.73,25.97,1014.15,2033.99,3344.45,3219.97,3506.11,349.78,344.62,15.14,0000 0000 0000 0000 000000
2015-06-24 05:04:46,-0.00,0.30,0.00,24.84,28.32,30.71,4.69,25.85,1014.16,2033.99,3344.27,3219.93,3506.06,350.42,344.93,15.17,0000 0000 0000 0000 000000
2015-06-24 05:09:48,0.01,0.30,0.00,24.84,28.32,30.70,4.70,25.88,1014.16,2033.99,3344.13,3219.84,3506.03,350.20,345.03,15.20,0000 0000 0000 0000 000000
2015-06-24 05:14:49,0.01,0.30,0.00,24.82,28.32,30.71,4.66,25.93,1014.17,2033.98,3344.05,3219.43,3506.00,350.03,344.77,15.23,0000 0000 0000 0000 000000
2015-06-24 05:19:50,0.01,0.30,0.00,24.84,28.34,30.72,4.67,25.97,1014.17,2033.98,3344.03,3219.31,3506.00,349.72,344.76,15.26,0000 0000 0000 0000 000000
2015-06-24 05:24:52,0.01,0.31,0.00,24.86,28.35,30.71,4.71,25.91,1014.19,2033.96,3344.00,3219.20,3506.00,349.59,344.29,15.29,0000 0000 0000 0000 000000
2015-06-24 05:29:53,0.00,0.31,0.00,24.87,28.35,30.73,4.78,25.92,1014.20,2033.97,3344.00,3219.08,3506.00,350.27,345.24,15.32,0000 0000 0000 0000 000000
2015-06-24 05:34:54,-0.00,0.31,0.00,24.87,28.35,30.73,4.77,25.97,1014.19,2033.97,3344.01,3219.05,3506.00,350.08,344.57,15.35,0000 0000 0000 0000 000000
2015-06-24 05:39:55,-0.02,0.31,0.00,24.87,28.35,30.74,4.82,26.06,1014.18,2033.87,3344.00,3219.05,3505.98,350.72,345.16,15.38,0000 0000 0000 0000 000000
2015-06-24 05:44:57,0.01,0.30,0.00,24.87,28.37,30.76,4.73,25.91,1014.18,2033.85,3344.00,3219.01,3505.98,350.31,345.00,15.40,0000 0000 0000 0000 000000
2015-06-24 05:49:58,-0.02,0.30,0.00,24.87,28.37,30.76,4.72,25.97,1014.19,2033.70,3344.00,3219.00,3505.98,349.52,344.46,15.43,0000 0000 0000 0000 000000
2015-06-24 05:55:00,0.04,0.30,0.00,24.87,28.37,30.76,4.68,25.93,1014.19,2033.90,3344.00,3219.04,3505.99,349.97,344.63,15.46,0000 0000 0000 0000 000000
2015-06-24 06:00:01,-0.01,0.31,0.00,24.87,28.37,30.77,4.80,25.96,1014.20,2033.86,3344.00,3219.04,3505.97,350.16,344.84,15.49,0000 0000 0000 0000 000000
2015-06-24 06:05:02,-0.01,0.30,0.00,24.88,28.38,30.77,4.77,25.95,1014.19,2033.70,3343.99,3219.01,3505.92,349.90,344.57,15.52,0000 0000 0000 0000 000000
2015-06-24 06:10:03,-0.04,0.30,0.00,24.88,28.40,30.77,4.77,25.96,1014.19,2033.37,3343.98,3219.00,3505.65,350.15,344.73,15.55,0000 0000 0000 0000 000000
2015-06-24 06:15:04,-0.02,0.30,0.00,24.88,28.40,30.80,4.83,25.88,1014.23,2033.32,3343.98,3219.00,3505.57,350.55,345.18,15.58,0000 0000 0000 0000 000000
2015-06-24 06:20:06,0.00,0.30,0.00,24.87,28.40,30.79,4.68,25.88,1014.21,2033.34,3343.98,3219.00,3505.64,349.58,344.33,15.61,0000 0000 0000 0000 000000
2015-06-24 06:25:07,-0.02,0.30,0.00,24.88,28.40,30.80,4.81,25.96,1014.19,2033.18,3343.94,3218.99,3505.28,350.42,345.15,15.64,0000 0000 0000 0000 000000
2015-06-24 06:30:08,0.00,0.30,0.00,24.87,28.41,30.80,4.77,25.84,1014.19,2033.16,3343.85,3218.99,3505.15,350.62,345.34,15.67,0000 0000 0000 0000 000000
2015-06-24 06:35:09,0.00,0.30,0.00,24.87,28.42,30.80,4.78,25.94,1014.18,2033.14,3343.64,3218.98,3505.09,350.17,345.04,15.70,0000 0000 0000 0000 000000
2015-06-24 06:40:10,-0.01,0.30,0.00,24.87,28.42,30.81,4.71,25.99,1014.19,2033.06,3343.43,3218.97,3505.03,349.68,344.42,15.73,0000 0000 0000 0000 000000
2015-06-24 06:45:11,-0.00,0.30,0.00,24.88,28.42,30.82,4.65,25.88,1014.19,2033.05,3343.59,3218.97,3505.03,349.93,344.61,15.76,0000 0000 0000 0000 000000
2015-06-24 06:50:13,0.01,0.30,0.00,24.89,28.42,30.82,4.73,25.83,1014.23,2033.05,3343.26,3218.95,3505.01,349.91,344.35,15.79,0000 0000 0000 0000 000000
2015-06-24 06:55:14,0.00,0.30,0.00,24.90,28.42,30.82,4.74,25.81,1014.35,2033.03,3343.08,3218.87,3505.00,349.86,344.68,15.81,0000 0000 0000 0000 000000
2015-06-24 07:00:14,-0.00,0.30,0.00,24.90,28.44,30.83,4.69,25.82,1014.29,2033.06,3343.16,3218.91,3505.01,349.82,344.58,15.84,0000 0000 0000 0000 000000
2015-06-24 07:05:16,0.00,0.30,0.00,24.90,28.45,30.83,4.71,25.89,1014.26,2033.07,3343.23,3218.92,3505.01,350.37,345.23,15.87,0000 0000 0000 0000 000000
2015-06-24 07:10:17,0.00,0.30,0.00,24.90,28.45,30.85,4.74,25.85,1014.28,2033.04,3343.24,3218.87,3505.00,349.97,344.72,15.90,0000 0000 0000 0000 000000
2015-06-24 07:15:18,-0.00,0.30,0.00,24.92,28.45,30.85,4.79,25.84,1014.42,2033.04,3343.08,3218.87,3505.01,350.06,344.71,15.93,0000 0000 0000 0000 000000
2015-06-24 07:20:20,-0.00,0.30,0.00,24.92,28.45,30.84,4.75,25.78,1014.64,2033.03,3343.06,3218.88,3505.00,350.27,344.91,15.96,0000 0000 0000 0000 000000
2015-06-24 07:25:21,0.02,0.30,0.00,24.92,28.46,30.85,4.66,25.82,1014.62,2033.02,3343.03,3218.52,3505.00,349.42,344.44,15.99,0000 0000 0000 0000 000000
2015-06-24 07:30:22,0.00,0.30,0.00,24.92,28.47,30.86,4.75,25.76,1014.62,2033.03,3343.00,3218.36,3504.99,350.21,344.98,16.02,0000 0000 0000 0000 000000
2015-06-24 07:35:23,0.01,0.30,0.00,24.92,28.47,30.86,4.80,25.84,1014.64,2033.02,3343.00,3218.19,3504.99,350.46,345.15,16.05,0000 0000 0000 0000 000000
2015-06-24 07:40:24,0.00,0.30,0.00,24.92,28.47,30.86,4.73,25.79,1014.66,2033.00,3343.00,3218.04,3504.97,349.90,344.68,16.08,0000 0000 0000 0000 000000
2015-06-24 07:45:25,0.00,0.30,0.00,24.92,28.47,30.86,4.71,25.80,1014.66,2033.01,3342.99,3218.03,3504.97,350.26,345.12,16.11,0000 0000 0000 0000 000000
2015-06-24 07:50:26,0.00,0.30,0.00,24.92,28.47,30.88,4.69,25.77,1014.67,2033.01,3342.98,3218.03,3504.94,350.06,344.86,16.14,0000 0000 0000 0000 000000
2015-06-24 07:55:28,0.00,0.30,0.00,24.92,28.49,30.88,4.67,25.65,1014.69,2033.01,3342.98,3218.00,3504.91,349.89,344.58,16.17,0000 0000 0000 0000 000000
2015-06-24 08:00:29,0.01,0.30,0.00,24.92,28.50,30.88,4.66,25.63,1014.88,2033.00,3342.89,3218.00,3504.68,349.70,344.58,16.20,0000 0000 0000 0000 000000
2015-06-24 08:05:31,0.00,0.30,0.00,24.92,28.50,30.88,4.70,25.62,1015.09,2033.01,3342.86,3218.00,3504.54,350.49,345.42,16.22,0000 0000 0000 0000 000000
2015-06-24 08:10:32,0.00,0.30,0.00,24.93,28.50,30.88,4.80,25.72,1015.10,2033.00,3342.76,3218.00,3504.31,349.84,344.72,16.25,0000 0000 0000 0000 000000
2015-06-24 08:15:33,0.01,0.30,0.00,24.94,28.50,30.89,4.75,25.62,1015.15,2033.00,3342.75,3218.00,3504.21,350.00,345.13,16.28,0000 0000 0000 0000 000000
2015-06-24 08:20:34,-0.01,0.30,0.00,24.94,28.50,30.89,4.70,25.64,1015.15,2033.02,3342.88,3218.00,3504.40,349.77,344.88,16.31,0000 0000 0000 0000 000000
2015-06-24 08:25:36,0.01,0.30,0.00,24.95,28.50,30.91,4.75,25.65,1015.15,2033.00,3342.69,3218.00,3504.15,350.46,345.42,16.34,0000 0000 0000 0000 000000
2015-06-24 08:30:37,0.00,0.30,0.00,24.95,28.51,30.90,4.76,25.71,1015.15,2033.00,3342.53,3218.00,3504.05,350.26,345.21,16.37,0000 0000 0000 0000 000000
2015-06-24 08:35:39,0.01,0.31,0.00,24.96,28.52,30.90,4.74,25.63,1015.15,2033.00,3342.15,3217.98,3504.01,350.08,344.88,16.40,0000 0000 0000 0000 000000
2015-06-24 08:40:40,0.00,0.31,0.00,24.96,28.52,30.91,4.61,25.60,1015.15,2033.00,3342.02,3217.98,3504.00,349.62,344.51,16.43,0000 0000 0000 0000 000000
2015-06-24 08:45:41,-0.00,0.31,0.00,24.94,28.52,30.92,4.73,25.69,1015.15,2033.00,3342.17,3217.98,3504.01,350.02,345.09,16.46,0000 0000 0000 0000 000000
2015-06-24 08:50:42,-0.00,0.31,0.00,24.96,28.52,30.92,4.77,25.64,1015.16,2033.00,3342.19,3217.99,3504.03,350.31,345.15,16.49,0000 0000 0000 0000 000000
2015-06-24 08:55:43,0.00,0.31,0.00,24.97,28.52,30.92,4.74,25.64,1015.16,2033.00,3342.05,3217.98,3504.01,349.87,344.79,16.52,0000 0000 0000 0000 000000
2015-06-24 09:00:44,0.00,0.31,0.00,24.97,28.52,30.91,4.66,25.57,1015.16,2033.00,3342.04,3217.98,3504.01,349.54,344.49,16.55,0000 0000 0000 0000 000000
2015-06-24 09:05:45,0.00,0.31,0.00,24.97,28.52,30.92,4.75,25.73,1015.15,2033.00,3342.02,3217.95,3504.00,350.03,345.00,16.58,0000 0000 0000 0000 000000
2015-06-24 09:10:46,0.00,0.31,0.00,24.97,28.52,30.92,4.71,25.70,1015.15,2033.00,3342.01,3217.95,3504.00,350.14,345.03,16.61,0000 0000 0000 0000 000000
2015-06-24 09:15:48,0.00,0.31,0.00,24.97,28.53,30.92,4.72,25.73,1015.15,2033.00,3342.00,3217.82,3504.00,350.26,345.22,16.63,0000 0000 0000 0000 000000
2015-06-24 09:20:49,0.00,0.31,0.00,24.97,28.53,30.93,4.73,25.74,1015.15,2033.00,3342.00,3217.77,3504.00,349.85,344.59,16.66,0000 0000 0000 0000 000000
2015-06-24 09:25:50,0.00,0.31,0.00,24.97,28.54,30.92,4.80,25.77,1015.15,2033.00,3342.00,3217.77,3503.99,350.48,345.53,16.69,0000 0000 0000 0000 000000
2015-06-24 09:30:51,0.01,0.31,0.00,24.98,28.55,30.92,4.71,25.63,1015.16,2033.00,3342.00,3217.66,3503.99,349.82,344.74,16.72,0000 0000 0000 0000 000000
2015-06-24 09:35:52,0.00,0.31,0.00,25.01,28.55,30.91,4.73,25.57,1015.17,2033.00,3342.00,3217.49,3503.99,350.11,344.92,16.75,0000 0000 0000 0000 000000
2015-06-24 09:40:53,0.01,0.31,0.00,25.03,28.55,30.91,4.78,25.66,1015.15,2033.00,3342.00,3217.23,3503.98,350.21,344.87,16.78,0000 0000 0000 0000 000000
2015-06-24 09:45:54,-0.02,0.31,0.00,25.05,28.55,30.91,4.80,25.66,1015.16,2033.00,3342.00,3217.43,3503.99,349.79,344.63,16.81,0000 0000 0000 0000 000000
2015-06-24 09:50:55,0.02,0.31,0.00,25.07,28.55,30.89,4.67,25.62,1015.17,2032.99,3341.99,3217.12,3503.97,349.83,344.52,16.84,0000 0000 0000 0000 000000
2015-06-24 09:55:56,0.00,0.31,0.00,25.07,28.55,30.90,4.81,25.68,1015.17,2032.99,3341.97,3217.02,3503.90,350.20,345.02,16.87,0000 0000 0000 0000 000000
2015-06-24 10:00:57,-0.00,0.31,0.00,25.08,28.57,30.91,4.75,25.64,1015.19,2032.99,3341.97,3217.02,3503.90,349.97,344.75,16.90,0000 0000 0000 0000 000000
2015-06-24 10:05:58,-0.00,0.31,0.00,25.09,28.57,30.92,4.76,25.68,1015.20,2032.98,3341.96,3217.02,3503.88,350.12,345.05,16.93,0000 0000 0000 0000 000000
2015-06-24 10:10:59,0.01,0.31,0.00,25.11,28.57,30.93,4.78,25.68,1015.26,2032.99,3341.92,3217.02,3503.76,350.14,344.59,16.96,0000 0000 0000 0000 000000
2015-06-24 10:16:00,0.01,0.31,0.00,25.13,28.59,30.93,4.73,25.63,1015.24,2032.98,3341.81,3217.01,3503.43,350.44,345.22,16.99,0000 0000 0000 0000 000000
2015-06-24 10:21:01,0.00,0.31,0.00,25.16,28.60,30.92,4.71,25.63,1015.23,2032.98,3341.71,3217.00,3503.25,349.87,344.49,17.02,0000 0000 0000 0000 000000
2015-06-24 10:26:02,-0.00,0.31,0.00,25.17,28.60,30.92,4.75,25.63,1015.29,2032.97,3341.67,3217.00,3503.27,350.04,344.75,17.04,0000 0000 0000 0000 000000
2015-06-24 10:31:04,0.01,0.31,0.00,25.19,28.62,30.94,4.74,25.67,1015.24,2032.96,3341.24,3217.00,3503.03,350.35,344.99,17.07,0000 0000 0000 0000 000000
2015-06-24 10:36:05,-0.00,0.31,0.00,25.20,28.62,30.94,4.71,25.68,1015.33,2032.92,3341.10,3217.00,3503.02,349.96,344.61,17.10,0000 0000 0000 0000 000000
2015-06-24 10:41:06,-0.04,0.31,0.00,25.23,28.63,30.92,4.75,25.64,1015.52,2032.68,3341.00,3216.91,3503.00,350.23,344.89,17.13,0000 0000 0000 0000 000000
2015-06-24 10:46:07,0.02,0.31,0.00,25.25,28.65,30.93,4.69,25.57,1015.61,2032.75,3341.00,3216.95,3503.00,350.07,344.88,17.16,0000 0000 0000 0000 000000
2015-06-24 10:51:09,-0.03,0.31,0.00,25.26,28.66,30.96,4.72,25.59,1015.64,2032.52,3341.00,3216.86,3502.98,350.17,345.02,17.19,0000 0000 0000 0000 000000
2015-06-24 10:56:10,0.00,0.31,0.00,25.27,28.67,30.99,4.76,25.60,1015.64,2032.46,3341.00,3216.73,3502.98,350.13,344.55,17.22,0000 0000 0000 0000 000000
2015-06-24 11:01:11,-0.01,0.31,0.00,25.28,28.69,31.01,4.77,25.60,1015.64,2032.28,3341.00,3216.43,3502.96,350.08,344.86,17.25,0000 0000 0000 0000 000000
2015-06-24 11:06:12,-0.01,0.31,0.00,25.28,28.70,31.04,4.73,25.64,1015.60,2032.12,3340.99,3216.11,3502.72,350.16,344.81,17.28,0000 0000 0000 0000 000000
2015-06-24 11:11:13,0.01,0.31,0.00,25.30,28.71,31.06,4.78,25.57,1015.62,2032.09,3340.97,3216.06,3502.56,350.21,344.52,17.31,0000 0000 0000 0000 000000
2015-06-24 11:16:15,-0.00,0.31,0.00,25.29,28.72,31.08,4.70,25.57,1015.62,2032.05,3340.92,3216.02,3502.19,349.99,344.57,17.34,0000 0000 0000 0000 000000
2015-06-24 11:21:16,-0.00,0.31,0.00,25.29,28.73,31.09,4.68,25.57,1015.59,2032.04,3340.88,3216.01,3502.14,350.73,345.30,17.37,0000 0000 0000 0000 000000
2015-06-24 11:26:17,0.01,0.31,0.00,25.28,28.75,31.11,4.74,25.57,1015.62,2032.03,3340.67,3216.01,3502.08,350.03,344.83,17.40,0000 0000 0000 0000 000000
2015-06-24 11:31:19,0.01,0.31,0.00,25.27,28.75,31.12,4.76,25.57,1015.63,2032.03,3340.43,3216.00,3502.04,350.01,344.68,17.43,0000 0000 0000 0000 000000
2015-06-24 11:36:20,0.00,0.31,0.00,25.27,28.76,31.14,4.74,25.54,1015.64,2032.01,3340.10,3216.00,3502.01,350.13,344.76,17.45,0000 0000 0000 0000 000000
2015-06-24 11:41:21,-0.00,0.31,0.00,25.27,28.77,31.14,4.69,25.48,1015.64,2032.00,3340.04,3215.99,3502.00,349.82,344.63,17.48,0000 0000 0000 0000 000000
2015-06-24 11:46:23,0.00,0.31,0.00,25.26,28.77,31.15,4.72,25.49,1015.62,2032.00,3340.02,3215.99,3502.00,350.15,344.90,17.51,0000 0000 0000 0000 000000
2015-06-24 11:51:24,0.00,0.31,0.00,25.27,28.79,31.16,4.79,25.57,1015.63,2032.01,3340.00,3215.99,3502.00,350.16,344.76,17.54,0000 0000 0000 0000 000000
2015-06-24 11:56:25,0.00,0.31,0.00,25.27,28.80,31.16,4.79,25.53,1015.64,2032.00,3340.00,3215.97,3502.00,350.77,345.09,17.57,0000 0000 0000 0000 000000
2015-06-24 12:01:26,0.00,0.31,0.00,25.27,28.80,31.17,4.81,25.48,1015.64,2032.00,3340.00,3215.98,3502.00,350.04,344.73,17.60,0000 0000 0000 0000 000000
2015-06-24 12:06:27,0.00,0.31,0.00,25.27,28.80,31.17,4.68,25.48,1015.64,2032.00,3340.00,3215.96,3502.00,349.63,344.36,17.63,0000 0000 0000 0000 000000
2015-06-24 12:11:28,0.00,0.31,0.00,25.26,28.81,31.18,4.71,25.40,1015.63,2032.00,3340.00,3215.87,3501.98,349.70,344.47,17.66,0000 0000 0000 0000 000000
2015-06-24 12:16:29,0.02,0.31,0.00,25.28,28.82,31.19,4.79,25.57,1015.57,2032.00,3339.98,3215.48,3501.91,350.16,344.55,17.69,0000 0000 0000 0000 000000
2015-06-24 12:21:31,0.01,0.31,0.00,25.30,28.82,31.19,4.60,25.43,1015.44,2032.00,3339.98,3215.16,3501.58,349.52,344.36,17.72,0000 0000 0000 0000 000000
2015-06-24 12:26:32,0.01,0.31,0.00,25.30,28.82,31.20,4.65,25.40,1015.29,2031.99,3339.96,3215.07,3501.30,349.48,344.17,17.75,0000 0000 0000 0000 000000
2015-06-24 12:31:33,0.01,0.31,0.00,25.31,28.83,31.20,4.80,25.41,1015.27,2031.99,3339.85,3215.03,3501.10,350.25,344.63,17.78,0000 0000 0000 0000 000000
2015-06-24 12:36:34,0.01,0.31,0.00,25.34,28.85,31.20,4.82,25.44,1015.20,2031.97,3339.41,3215.00,3501.01,349.97,344.51,17.81,0000 0000 0000 0000 000000
2015-06-24 12:41:36,0.00,0.31,0.00,25.36,28.85,31.19,4.63,25.43,1015.16,2031.96,3339.10,3215.00,3501.00,350.13,344.71,17.84,0000 0000 0000 0000 000000
2015-06-24 12:46:37,0.00,0.31,0.00,25.38,28.85,31.22,4.70,25.49,1015.15,2031.98,3339.24,3215.00,3501.00,349.79,344.40,17.87,0000 0000 0000 0000 000000
2015-06-24 12:51:39,0.00,0.31,0.00,25.39,28.86,31.21,4.75,25.48,1015.15,2031.98,3339.06,3215.00,3501.00,350.61,344.74,17.89,0000 0000 0000 0000 000000
2015-06-24 12:56:40,-0.01,0.31,0.00,25.40,28.87,31.23,4.65,25.32,1015.15,2031.94,3339.13,3215.00,3501.00,349.66,344.34,17.92,0000 0000 0000 0000 000000
2015-06-24 13:01:41,-0.00,0.31,0.00,25.42,28.87,31.22,4.79,25.52,1015.15,2031.96,3339.04,3214.99,3501.00,350.23,344.60,17.95,0000 0000 0000 0000 000000